SCP
0 0 0 0 0 0 0 0 0 0 0 0 0 0 0 0 0 0 0 0 0 0
0 0 0 0 0 0 0 0 0 0 0 0 0 0 0 0 0 0 0 0 0 0
0 0 0 0 0 0 0 0 0 0 0 0 0 0 0 0 0 0 0 0 0 0
0 0 0 0 0 0 0 0 0 0 0 0 0 0 0 0 0 0 0 0 0 0
0 0 0 0 0 0 0 0 0 0 0 0 0 0 0 0 0 0 0 0 0 0
0 0 0 0 0 0 0 0 0 0 0 0 0 0 0 0 0 0 0 0 0 0
0 0 0 0 0 0 0 0 0 0 0 0 0 0 0 0 0 0 0 0 0 0
0 0 0 0 0 0 0 0 0 0 0 0 0 0 0 0 0 0 0 0 0 0
0 0 0 0 0 0 0 0 0 0 0 0 0 0 0 0 0 0 0 0 0 0
0 0 0 0 0 0 0 0 0 0 0 0 0 0 0 0 0 0 0 0 0 0
0 0 0 0 0 0 0 0 0 0 0 0 0 0 0 0 0 0 0 0 0 0
0 0 0 0 0 0 0 0 0 0 0 0 0 0 0 0 0 0 0 0 0 0
0 0 0 0 0 0 0 0 0 0 0 0 0 0 0 0 0 0 0 0 0 0
0 0 0 0 0 0 0 0 0 0 0 0 0 0 0 0 0 0 0 0 0 0
Wind_Speed_500mb
57 51 52 50 41 36 35 30 29 24 26 28 29 28 27 21 26 29 29 35 38 42
57 52 54 55 48 38 35 34 32 31 29 22 21 25 26 27 27 27 30 33 35 36
47 48 53 53 46 40 35 31 25 26 28 28 25 17 15 16 16 18 20 22 26 29
44 48 54 53 44 35 31 26 24 22 19 16 15 12 8 9 11 15 19 22 25 29
43 48 52 49 42 33 32 29 24 21 18 14 9 8 7 10 14 18 23 28 33 37
46 47 44 41 41 37 32 29 27 21 16 12 10 8 10 14 20 26 30 34 39 44
47 46 45 43 40 37 34 28 24 19 14 10 7 9 15 20 24 29 35 41 46 50
50 48 46 43 40 36 32 27 23 17 12 9 11 16 22 27 31 35 39 43 45 47
51 50 46 42 38 35 31 26 20 15 10 11 17 23 26 29 33 36 38 37 39 42
51 49 46 43 39 34 30 24 17 12 13 18 21 23 26 28 29 31 33 35 38 39
53 50 48 44 39 34 27 20 14 15 18 20 22 24 25 26 27 28 30 32 36 40
55 51 47 43 37 30 23 18 17 20 21 21 22 24 24 24 24 25 29 34 38 43
54 51 47 40 33 27 23 22 21 21 21 21 22 22 21 22 26 30 34 39 45 47
55 49 42 35 31 27 24 23 21 21 21 20 18 15 17 23 29 35 41 48 53 56
Wind_Direction_500mb
235 228 221 230 238 238 239 237 232 228 239 249 255 254 263 257 276 271 279 284 287 288
229 220 216 222 223 228 228 230 234 243 247 239 237 250 251 259 258 268 275 284 287 292
219 216 210 210 218 213 219 227 217 216 223 228 227 237 250 259 269 279 287 293 298 303
199 201 201 212 215 224 230 191 192 194 199 203 209 214 229 259 280 295 303 308 310 316
193 195 202 205 208 202 176 176 180 183 181 187 204 231 261 285 300 309 315 321 324 322
188 189 193 193 187 177 173 172 173 179 186 199 221 254 292 314 322 324 323 322 323 324
171 172 176 178 176 172 172 178 180 184 195 214 255 296 312 317 319 321 324 324 324 322
176 176 176 176 177 178 178 181 187 192 210 246 287 310 318 321 322 322 320 320 322 323
181 179 179 181 182 182 185 187 195 208 236 283 306 312 313 315 315 314 316 319 323 329
188 186 184 184 186 188 191 195 204 231 270 292 297 299 302 305 309 316 323 329 331 335
192 190 188 188 189 193 197 207 228 259 277 283 289 294 301 309 315 323 329 335 334 334
195 193 194 193 193 198 208 225 247 261 268 277 286 296 303 308 316 326 331 333 332 329
197 197 198 196 198 206 222 237 245 254 268 282 290 295 301 310 322 330 328 329 332 331
199 199 199 201 205 218 229 239 248 259 271 278 281 291 307 316 320 323 326 328 327 324
Wind_Speed_850mb
57 51 52 50 41 36 35 30 29 24 26 28 29 28 27 21 26 29 29 35 38 42
57 52 54 55 48 38 35 34 32 31 29 22 21 25 26 27 27 27 30 33 35 36
47 48 53 53 46 40 35 31 25 26 28 28 25 17 15 16 16 18 20 22 26 29
44 48 54 53 44 35 31 26 24 22 19 16 15 12 8 9 11 15 19 22 25 29
43 48 52 49 42 33 32 29 24 21 18 14 9 8 7 10 14 18 23 28 33 37
46 47 44 41 41 37 32 29 27 21 16 12 10 8 10 14 20 26 30 34 39 44
47 46 45 43 40 37 34 28 24 19 14 10 7 9 15 20 24 29 35 41 46 50
50 48 46 43 40 36 32 27 23 17 12 9 11 16 22 27 31 35 39 43 45 47
51 50 46 42 38 35 31 26 20 15 10 11 17 23 26 29 33 36 38 37 39 42
51 49 46 43 39 34 30 24 17 12 13 18 21 23 26 28 29 31 33 35 38 39
53 50 48 44 39 34 27 20 14 15 18 20 22 24 25 26 27 28 30 32 36 40
55 51 47 43 37 30 23 18 17 20 21 21 22 24 24 24 24 25 29 34 38 43
54 51 47 40 33 27 23 22 21 21 21 21 22 22 21 22 26 30 34 39 45 47
55 49 42 35 31 27 24 23 21 21 21 20 18 15 17 23 29 35 41 48 53 56
Wind_Direction_850mb
235 228 221 230 238 238 239 237 232 228 239 249 255 254 263 257 276 271 279 284 287 288
229 220 216 222 223 228 228 230 234 243 247 239 237 250 251 259 258 268 275 284 287 292
219 216 210 210 218 213 219 227 217 216 223 228 227 237 250 259 269 279 287 293 298 303
199 201 201 212 215 224 230 191 192 194 199 203 209 214 229 259 280 295 303 308 310 316
193 195 202 205 208 202 176 176 180 183 181 187 204 231 261 285 300 309 315 321 324 322
188 189 193 193 187 177 173 172 173 179 186 199 221 254 292 314 322 324 323 322 323 324
171 172 176 178 176 172 172 178 180 184 195 214 255 296 312 317 319 321 324 324 324 322
176 176 176 176 177 178 178 181 187 192 210 246 287 310 318 321 322 322 320 320 322 323
181 179 179 181 182 182 185 187 195 208 236 283 306 312 313 315 315 314 316 319 323 329
188 186 184 184 186 188 191 195 204 231 270 292 297 299 302 305 309 316 323 329 331 335
192 190 188 188 189 193 197 207 228 259 277 283 289 294 301 309 315 323 329 335 334 334
195 193 194 193 193 198 208 225 247 261 268 277 286 296 303 308 316 326 331 333 332 329
197 197 198 196 198 206 222 237 245 254 268 282 290 295 301 310 322 330 328 329 332 331
199 199 199 201 205 218 229 239 248 259 271 278 281 291 307 316 320 323 326 328 327 324